| time (UTC) | temp F | wind direction | speed MPH | gust MPH | rain 1hr in | rain 24hr in | rain mn in | humidity % | barometer mb |
| 20260904181557 | 90 | 219 | 2.0 | 9.0 | 0.00 | 0.00 | 0.00 | 76 | 1014.7 |
| 20260904180052 | 90 | 160 | 4.0 | 9.0 | 0.00 | 0.00 | 0.00 | 74 | 1014.9 |
| 20260904174548 | 90 | 57 | 2.0 | 8.0 | 0.00 | 0.26 | 0.00 | 76 | 1015.0 |
| 20260904173102 | 89 | 301 | 1.0 | 5.0 | 0.00 | 0.26 | 0.00 | 76 | 1015.1 |
| 20260904171607 | 89 | 165 | 1.0 | 6.0 | 0.00 | 0.26 | 0.00 | 76 | 1015.4 |
| 20260904170049 | 89 | 178 | 2.0 | 6.0 | 0.00 | 0.26 | 0.00 | 76 | 1015.6 |
| 20260904164558 | 88 | 265 | 2.0 | 6.0 | 0.00 | 0.32 | 0.00 | 80 | 1015.7 |
| 20260904163055 | 87 | 137 | 3.0 | 9.0 | 0.00 | 0.32 | 0.00 | 80 | 1015.7 |
| 20260904161553 | 87 | 238 | 1.0 | 5.0 | 0.00 | 0.32 | 0.00 | 81 | 1015.7 |
| 20260904160050 | 87 | 19 | 1.0 | 5.0 | 0.00 | 0.32 | 0.00 | 83 | 1015.7 |
| 20260904154559 | 87 | 178 | 2.0 | 8.0 | 0.00 | 0.32 | 0.00 | 84 | 1015.6 |
| 20260904153058 | 86 | 250 | 1.0 | 3.0 | 0.00 | 0.32 | 0.00 | 85 | 1015.5 |
| 20260904151605 | 86 | 137 | 1.0 | 5.0 | 0.00 | 0.32 | 0.00 | 87 | 1015.5 |
| 20260904150105 | 85 | 178 | 1.0 | 5.0 | 0.00 | 0.32 | 0.00 | 90 | 1015.5 |
| 20260904144547 | 83 | 0 | 1.0 | 4.0 | 0.00 | 0.32 | 0.00 | 93 | 1015.5 |
| 20260904143044 | 81 | 51 | 1.0 | 4.0 | 0.00 | 0.32 | 0.00 | 97 | 1015.5 |
| 20260904141606 | 80 | 39 | 1.0 | 6.0 | 0.00 | 0.32 | 0.00 | 99 | 1015.5 |
| 20260904140054 | 79 | 330 | 2.0 | 4.0 | 0.00 | 0.32 | 0.00 | 100 | 1015.3 |
| 20260904134555 | 78 | 76 | 0.0 | 2.0 | 0.00 | 0.32 | 0.00 | 100 | 1015.3 |
| 20260904133050 | 77 | 0 | 0.0 | 0.0 | 0.00 | 0.32 | 0.00 | 100 | 1015.2 |
| 20260904131558 | 76 | 0 | 0.0 | 0.0 | 0.00 | 0.32 | 0.00 | 100 | 1015.2 |
| 20260904130051 | 74 | 0 | 0.0 | 0.0 | 0.00 | 0.32 | 0.00 | 100 | 1014.9 |
| 20260904124548 | 73 | 0 | 0.0 | 0.0 | 0.00 | 0.32 | 0.00 | 100 | 1015.0 |
| 20260904123046 | 72 | 0 | 0.0 | 0.0 | 0.00 | 0.32 | 0.00 | 100 | 1014.8 |
| 20260904121544 | 72 | 0 | 0.0 | 0.0 | 0.00 | 0.32 | 0.00 | 99 | 1014.7 |
| 20260904120059 | 72 | 0 | 0.0 | 1.0 | 0.00 | 0.32 | 0.00 | 99 | 1014.5 |
| 20260904114548 | 72 | 0 | 0.0 | 1.0 | 0.00 | 0.32 | 0.00 | 99 | 1014.4 |
| 20260904113050 | 72 | 0 | 0.0 | 0.0 | 0.00 | 0.32 | 0.00 | 99 | 1014.3 |
| 20260904111550 | 73 | 0 | 0.0 | 0.0 | 0.00 | 0.32 | 0.00 | 99 | 1014.2 |
| 20260904110057 | 73 | 0 | 0.0 | 0.0 | 0.00 | 0.32 | 0.00 | 99 | 1014.1 |
| 20260904104550 | 73 | 0 | 0.0 | 0.0 | 0.00 | 0.32 | 0.00 | 99 | 1014.1 |
| 20260904103047 | 73 | 0 | 0.0 | 1.0 | 0.00 | 0.32 | 0.00 | 100 | 1014.1 |
| 20260904101543 | 73 | 0 | 0.0 | 0.0 | 0.00 | 0.32 | 0.00 | 99 | 1014.1 |
| 20260904100054 | 73 | 0 | 0.0 | 1.0 | 0.00 | 0.32 | 0.00 | 99 | 1014.1 |
| 20260904094557 | 73 | 334 | 0.0 | 1.0 | 0.00 | 0.32 | 0.00 | 99 | 1014.1 |
| 20260904093058 | 73 | 0 | 0.0 | 0.0 | 0.00 | 0.32 | 0.00 | 99 | 1013.9 |
| 20260904091553 | 73 | 0 | 0.0 | 1.0 | 0.00 | 0.32 | 0.00 | 99 | 1013.9 |
| 20260904090049 | 73 | 0 | 0.0 | 1.0 | 0.00 | 0.32 | 0.00 | 99 | 1014.0 |
| 20260904084548 | 73 | 0 | 0.0 | 1.0 | 0.00 | 0.32 | 0.00 | 99 | 1013.8 |
| 20260904083056 | 73 | 0 | 0.0 | 1.0 | 0.00 | 0.32 | 0.00 | 99 | 1013.7 |
| 20260904081549 | 73 | 0 | 0.0 | 1.0 | 0.00 | 0.32 | 0.00 | 99 | 1013.8 |
| 20260904080058 | 73 | 0 | 0.0 | 1.0 | 0.00 | 0.32 | 0.00 | 99 | 1013.9 |
| 20260904074556 | 73 | 0 | 0.0 | 2.0 | 0.00 | 0.32 | 0.00 | 99 | 1013.9 |
| 20260904073051 | 74 | 0 | 0.0 | 0.0 | 0.00 | 0.32 | 0.00 | 99 | 1013.8 |
| 20260904071549 | 74 | 0 | 0.0 | 2.0 | 0.00 | 0.32 | 0.00 | 99 | 1013.8 |
| 20260904070100 | 74 | 0 | 0.0 | 1.0 | 0.00 | 0.32 | 0.00 | 99 | 1013.8 |
| 20260904064552 | 74 | 0 | 0.0 | 1.0 | 0.00 | 0.32 | 0.00 | 99 | 1013.8 |
| 20260904063048 | 74 | 0 | 0.0 | 1.0 | 0.00 | 0.32 | 0.00 | 98 | 1013.9 |
| 20260904061558 | 74 | 0 | 0.0 | 1.0 | 0.00 | 0.32 | 0.00 | 98 | 1013.9 |
| 20260904060055 | 74 | 291 | 0.0 | 1.0 | 0.00 | 0.32 | 0.00 | 99 | 1013.8 |
| 20260904054552 | 74 | 0 | 0.0 | 1.0 | 0.00 | 0.32 | 0.00 | 98 | 1013.7 |
| 20260904053053 | 74 | 0 | 0.0 | 1.0 | 0.00 | 0.32 | 0.00 | 98 | 1013.8 |
| 20260904051553 | 75 | 309 | 0.0 | 1.0 | 0.00 | 0.32 | 0.00 | 98 | 1013.6 |
| 20260904050057 | 75 | 0 | 0.0 | 1.0 | 0.00 | 0.32 | 0.00 | 98 | 1013.7 |
| 20260904044550 | 75 | 0 | 0.0 | 1.0 | 0.00 | 0.32 | 0.32 | 98 | 1013.8 |
| 20260904043052 | 75 | 0 | 0.0 | 1.0 | 0.00 | 0.32 | 0.32 | 98 | 1013.8 |
| 20260904041550 | 75 | 0 | 0.0 | 2.0 | 0.00 | 0.32 | 0.32 | 98 | 1013.8 |
| 20260904034550 | 75 | 0 | 0.0 | 1.0 | 0.00 | 0.32 | 0.32 | 98 | 1013.7 |
| 20260904033053 | 76 | 0 | 0.0 | 2.0 | 0.00 | 0.32 | 0.32 | 98 | 1013.6 |
| 20260904031549 | 76 | 221 | 0.0 | 2.0 | 0.00 | 0.32 | 0.32 | 97 | 1013.7 |
| 20260904030045 | 76 | 0 | 0.0 | 1.0 | 0.00 | 0.32 | 0.32 | 97 | 1013.9 |
| 20260904024557 | 76 | 0 | 0.0 | 2.0 | 0.00 | 0.32 | 0.32 | 97 | 1014.1 |
| 20260904023058 | 76 | 0 | 0.0 | 2.0 | 0.00 | 0.32 | 0.32 | 96 | 1013.9 |
| 20260904021548 | 77 | 0 | 0.0 | 1.0 | 0.00 | 0.32 | 0.32 | 96 | 1013.8 |
| 20260904020052 | 77 | 0 | 0.0 | 1.0 | 0.00 | 0.32 | 0.32 | 96 | 1013.8 |
| 20260904014601 | 78 | 0 | 0.0 | 2.0 | 0.00 | 0.32 | 0.32 | 96 | 1013.6 |
| 20260904013049 | 78 | 0 | 0.0 | 2.0 | 0.00 | 0.32 | 0.32 | 95 | 1013.4 |
| 20260904011548 | 79 | 0 | 0.0 | 1.0 | 0.00 | 0.32 | 0.32 | 94 | 1013.4 |
| 20260904010055 | 79 | 0 | 0.0 | 1.0 | 0.00 | 0.32 | 0.32 | 94 | 1013.2 |
| 20260904004551 | 80 | 0 | 0.0 | 1.0 | 0.00 | 0.32 | 0.32 | 93 | 1013.3 |
| 20260904003048 | 81 | 0 | 0.0 | 2.0 | 0.00 | 0.32 | 0.32 | 92 | 1013.3 |
| 20260904001544 | 82 | 0 | 0.0 | 2.0 | 0.00 | 0.32 | 0.32 | 91 | 1013.2 |
| 20260904000114 | 83 | 0 | 0.0 | 2.0 | 0.00 | 0.32 | 0.32 | 90 | 1013.1 |
| 20260903234550 | 84 | 325 | 1.0 | 3.0 | 0.00 | 0.47 | 0.32 | 89 | 1013.2 |
| 20260903233054 | 83 | 0 | 0.0 | 2.0 | 0.00 | 0.47 | 0.32 | 90 | 1013.3 |
| 20260903231553 | 83 | 0 | 0.0 | 5.0 | 0.00 | 0.47 | 0.32 | 91 | 1013.6 |
| 20260903230048 | 82 | 144 | 1.0 | 2.0 | 0.00 | 0.47 | 0.32 | 91 | 1013.6 |
| 20260903224611 | 81 | 215 | 2.0 | 6.0 | 0.00 | 0.95 | 0.32 | 91 | 1013.6 |
| 20260903223049 | 81 | 265 | 2.0 | 6.0 | 0.00 | 0.95 | 0.32 | 91 | 1013.5 |
| 20260903221547 | 81 | 238 | 1.0 | 5.0 | 0.00 | 0.95 | 0.32 | 92 | 1013.8 |
| 20260903220048 | 81 | 293 | 1.0 | 4.0 | 0.00 | 0.95 | 0.32 | 91 | 1013.7 |
| 20260903214609 | 82 | 34 | 0.0 | 3.0 | 0.00 | 0.95 | 0.32 | 91 | 1013.7 |
| 20260903213059 | 82 | 119 | 0.0 | 3.0 | 0.00 | 0.95 | 0.32 | 91 | 1013.8 |
| 20260903211605 | 82 | 22 | 0.0 | 3.0 | 0.00 | 0.95 | 0.32 | 91 | 1014.1 |
| 20260903210124 | 82 | 93 | 0.0 | 4.0 | 0.00 | 0.95 | 0.32 | 90 | 1014.7 |
| 20260903204552 | 83 | 119 | 1.0 | 6.0 | 0.00 | 0.95 | 0.32 | 89 | 1014.9 |
| 20260903203106 | 84 | 334 | 1.0 | 5.0 | 0.00 | 0.95 | 0.32 | 89 | 1014.7 |
| 20260903201548 | 83 | 0 | 1.0 | 8.0 | 0.00 | 0.95 | 0.32 | 90 | 1014.8 |
| 20260903200057 | 81 | 309 | 1.0 | 4.0 | 0.00 | 0.95 | 0.32 | 92 | 1015.0 |
| 20260903194551 | 80 | 137 | 1.0 | 5.0 | 0.00 | 0.95 | 0.32 | 95 | 1014.8 |
| 20260903193058 | 80 | 265 | 1.0 | 8.0 | 0.00 | 0.95 | 0.32 | 97 | 1015.0 |
| 20260903191557 | 79 | 72 | 1.0 | 7.0 | 0.00 | 0.95 | 0.32 | 97 | 1015.3 |
| 20260903190056 | 78 | 19 | 1.0 | 8.0 | 0.00 | 0.95 | 0.32 | 98 | 1015.2 |
| 20260903184548 | 78 | 323 | 3.0 | 8.0 | 0.00 | 0.95 | 0.32 | 97 | 1015.6 |
| 20260903183050 | 79 | 61 | 2.0 | 5.0 | 0.00 | 0.95 | 0.32 | 98 | 1015.5 |